Time,TemperatureF,DewpointF,PressureIn,WindDirection,WindDirectionDegrees,WindSpeedMPH,WindSpeedGustMPH,Humidity,HourlyPrecipIn,Conditions,Clouds,dailyrainin,SoftwareType,DateUTC
2013-09-28 00:01:00,64.0,52.0,30.22,ENE,62,4.0,6.0,65,0.00,,---,0.00,VWS V14.00,2013-09-28 04:01:00,
2013-09-28 00:02:00,64.0,52.0,30.22,East,83,1.0,6.0,65,0.00,,---,0.00,VWS V14.00,2013-09-28 04:02:00,
2013-09-28 00:04:00,64.0,52.0,30.22,East,81,10.0,10.0,65,0.00,,---,0.00,VWS V14.00,2013-09-28 04:04:00,
2013-09-28 00:09:00,64.0,52.4,30.22,ENE,75,9.0,10.0,66,0.00,,---,0.00,VWS V14.00,2013-09-28 04:09:00,
2013-09-28 00:15:00,64.0,53.2,30.22,East,91,7.0,12.0,68,0.00,,---,0.00,VWS V14.00,2013-09-28 04:15:00,
2013-09-28 00:20:00,64.0,53.2,30.21,East,96,7.0,13.0,68,0.00,,---,0.00,VWS V14.00,2013-09-28 04:20:00,
2013-09-28 00:25:00,64.0,53.6,30.21,NE,54,9.0,13.0,69,0.00,,---,0.00,VWS V14.00,2013-09-28 04:25:00,
2013-09-28 00:30:00,63.9,53.5,30.22,ENE,73,9.0,11.0,69,0.00,,---,0.00,VWS V14.00,2013-09-28 04:30:00,
2013-09-28 00:35:00,63.9,53.5,30.22,East,83,7.0,12.0,69,0.00,,---,0.00,VWS V14.00,2013-09-28 04:35:00,
2013-09-28 00:40:00,63.9,53.9,30.21,ENE,68,10.0,13.0,70,0.00,,---,0.00,VWS V14.00,2013-09-28 04:40:00,
2013-09-28 00:45:00,63.9,53.9,30.21,ENE,64,10.0,13.0,70,0.00,,---,0.00,VWS V14.00,2013-09-28 04:45:00,
2013-09-28 00:51:00,63.9,54.3,30.21,ENE,71,7.0,13.0,71,0.00,,---,0.00,VWS V14.00,2013-09-28 04:51:00,
2013-09-28 00:56:00,63.9,53.5,30.21,ENE,62,6.0,13.0,69,0.00,,---,0.00,VWS V14.00,2013-09-28 04:56:00,
2013-09-28 01:01:00,63.9,54.3,30.21,NE,45,7.0,13.0,71,0.00,,---,0.00,VWS V14.00,2013-09-28 05:01:00,
2013-09-28 01:06:00,63.9,55.1,30.21,ENE,62,11.0,14.0,73,0.00,,---,0.00,VWS V14.00,2013-09-28 05:06:00,
2013-09-28 01:11:00,63.9,54.7,30.21,ENE,65,9.0,14.0,72,0.00,,---,0.00,VWS V14.00,2013-09-28 05:11:00,
2013-09-28 01:16:00,63.9,54.3,30.21,East,79,10.0,14.0,71,0.00,,---,0.00,VWS V14.00,2013-09-28 05:16:00,
2013-09-28 01:21:00,63.9,54.3,30.21,ENE,71,10.0,14.0,71,0.00,,---,0.00,VWS V14.00,2013-09-28 05:21:00,
2013-09-28 01:26:00,63.9,54.3,30.21,ENE,68,10.0,14.0,71,0.00,,---,0.00,VWS V14.00,2013-09-28 05:26:00,
2013-09-28 01:31:00,63.9,54.7,30.21,ENE,65,8.0,12.0,72,0.00,,---,0.00,VWS V14.00,2013-09-28 05:31:00,
2013-09-28 01:36:00,63.9,55.1,30.21,East,80,9.0,15.0,73,0.00,,---,0.00,VWS V14.00,2013-09-28 05:36:00,
2013-09-28 01:41:00,63.8,55.0,30.21,ENE,62,9.0,15.0,73,0.00,,---,0.00,VWS V14.00,2013-09-28 05:41:00,
2013-09-28 01:46:00,63.8,55.0,30.21,ENE,75,7.0,15.0,73,0.00,,---,0.00,VWS V14.00,2013-09-28 05:46:00,
2013-09-28 01:52:00,63.8,55.7,30.21,ENE,78,9.0,15.0,75,0.00,,---,0.00,VWS V14.00,2013-09-28 05:52:00,
2013-09-28 01:57:00,63.7,55.3,30.21,NE,56,9.0,15.0,74,0.00,,---,0.00,VWS V14.00,2013-09-28 05:57:00,
2013-09-28 02:02:00,63.7,55.3,30.21,ENE,73,12.0,12.0,74,0.00,,---,0.00,VWS V14.00,2013-09-28 06:02:00,
2013-09-28 02:07:00,63.7,55.6,30.20,ENE,65,9.0,13.0,75,0.00,,---,0.00,VWS V14.00,2013-09-28 06:07:00,
2013-09-28 02:12:00,63.7,55.6,30.20,ENE,62,12.0,16.0,75,0.00,,---,0.00,VWS V14.00,2013-09-28 06:12:00,
2013-09-28 02:17:00,63.6,55.5,30.20,ENE,71,8.0,16.0,75,0.00,,---,0.00,VWS V14.00,2013-09-28 06:17:00,
2013-09-28 02:22:00,63.6,55.5,30.20,ENE,72,7.0,16.0,75,0.00,,---,0.00,VWS V14.00,2013-09-28 06:22:00,
2013-09-28 02:27:00,63.6,55.2,30.20,East,82,7.0,16.0,74,0.00,,---,0.00,VWS V14.00,2013-09-28 06:27:00,
2013-09-28 02:32:00,63.6,55.5,30.20,East,85,9.0,11.0,75,0.00,,---,0.00,VWS V14.00,2013-09-28 06:32:00,
2013-09-28 02:38:00,63.6,55.9,30.20,East,79,10.0,13.0,76,0.00,,---,0.00,VWS V14.00,2013-09-28 06:38:00,
2013-09-28 02:43:00,63.6,55.9,30.20,East,87,7.0,15.0,76,0.00,,---,0.00,VWS V14.00,2013-09-28 06:43:00,
2013-09-28 02:48:00,63.6,55.9,30.20,ESE,110,8.0,15.0,76,0.00,,---,0.00,VWS V14.00,2013-09-28 06:48:00,
2013-09-28 02:53:00,63.6,56.3,30.20,ENE,62,11.0,15.0,77,0.00,,---,0.00,VWS V14.00,2013-09-28 06:53:00,
2013-09-28 02:58:00,63.6,55.9,30.20,ESE,102,9.0,15.0,76,0.00,,---,0.00,VWS V14.00,2013-09-28 06:58:00,
2013-09-28 03:03:00,63.6,55.9,30.20,East,79,10.0,13.0,76,0.00,,---,0.00,VWS V14.00,2013-09-28 07:03:00,
2013-09-28 03:08:00,63.5,55.8,30.20,ENE,78,8.0,13.0,76,0.00,,---,0.00,VWS V14.00,2013-09-28 07:08:00,
2013-09-28 03:13:00,63.6,56.6,30.20,East,88,10.0,13.0,78,0.00,,---,0.00,VWS V14.00,2013-09-28 07:13:00,
2013-09-28 03:18:00,63.6,55.9,30.20,East,84,12.0,15.0,76,0.00,,---,0.00,VWS V14.00,2013-09-28 07:18:00,
2013-09-28 03:23:00,63.6,55.5,30.20,ENE,58,9.0,15.0,75,0.00,,---,0.00,VWS V14.00,2013-09-28 07:23:00,
2013-09-28 03:28:00,63.6,55.5,30.20,East,89,6.0,15.0,75,0.00,,---,0.00,VWS V14.00,2013-09-28 07:28:00,
2013-09-28 03:34:00,63.5,55.4,30.20,ESE,102,7.0,12.0,75,0.00,,---,0.00,VWS V14.00,2013-09-28 07:34:00,
2013-09-28 03:39:00,63.4,55.3,30.20,East,90,6.0,13.0,75,0.00,,---,0.00,VWS V14.00,2013-09-28 07:39:00,
2013-09-28 03:44:00,63.3,55.6,30.20,ENE,72,9.0,13.0,76,0.00,,---,0.00,VWS V14.00,2013-09-28 07:44:00,
2013-09-28 03:49:00,63.2,54.8,30.20,East,95,9.0,13.0,74,0.00,,---,0.00,VWS V14.00,2013-09-28 07:49:00,
2013-09-28 03:54:00,63.2,55.2,30.20,East,93,13.0,15.0,75,0.00,,---,0.00,VWS V14.00,2013-09-28 07:54:00,
2013-09-28 03:59:00,63.2,54.4,30.20,East,81,10.0,15.0,73,0.00,,---,0.00,VWS V14.00,2013-09-28 07:59:00,
2013-09-28 04:04:00,63.1,53.9,30.20,East,98,10.0,14.0,72,0.00,,---,0.00,VWS V14.00,2013-09-28 08:04:00,
2013-09-28 04:09:00,63.1,53.9,30.20,East,87,10.0,14.0,72,0.00,,---,0.00,VWS V14.00,2013-09-28 08:09:00,
2013-09-28 04:14:00,63.0,53.8,30.20,ENE,62,5.0,14.0,72,0.00,,---,0.00,VWS V14.00,2013-09-28 08:14:00,
2013-09-28 04:19:00,62.9,54.1,30.20,ENE,77,6.0,14.0,73,0.00,,---,0.00,VWS V14.00,2013-09-28 08:19:00,
2013-09-28 04:24:00,62.9,54.1,30.20,East,93,9.0,14.0,73,0.00,,---,0.00,VWS V14.00,2013-09-28 08:24:00,
2013-09-28 04:29:00,62.8,53.7,30.20,ENE,69,9.0,14.0,72,0.00,,---,0.00,VWS V14.00,2013-09-28 08:29:00,
2013-09-28 04:34:00,62.8,53.7,30.20,ENE,72,7.0,13.0,72,0.00,,---,0.00,VWS V14.00,2013-09-28 08:34:00,
2013-09-28 04:39:00,62.9,53.4,30.20,East,83,14.0,15.0,71,0.00,,---,0.00,VWS V14.00,2013-09-28 08:39:00,
2013-09-28 04:45:00,63.0,53.5,30.21,East,88,6.0,15.0,71,0.00,,---,0.00,VWS V14.00,2013-09-28 08:45:00,
2013-09-28 04:50:00,63.0,53.8,30.21,East,86,6.0,15.0,72,0.00,,---,0.00,VWS V14.00,2013-09-28 08:50:00,
2013-09-28 04:55:00,63.0,53.8,30.21,East,98,7.0,15.0,72,0.00,,---,0.00,VWS V14.00,2013-09-28 08:55:00,
2013-09-28 05:00:00,62.9,53.0,30.21,East,97,6.0,10.0,70,0.00,,---,0.00,VWS V14.00,2013-09-28 09:00:00,
2013-09-28 05:05:00,62.9,53.4,30.21,East,88,6.0,13.0,71,0.00,,---,0.00,VWS V14.00,2013-09-28 09:05:00,
2013-09-28 05:10:00,62.9,53.8,30.21,East,81,6.0,13.0,72,0.00,,---,0.00,VWS V14.00,2013-09-28 09:10:00,
2013-09-28 05:15:00,62.8,54.0,30.21,East,87,7.0,14.0,73,0.00,,---,0.00,VWS V14.00,2013-09-28 09:15:00,
2013-09-28 05:20:00,62.7,53.9,30.22,ENE,78,11.0,15.0,73,0.00,,---,0.00,VWS V14.00,2013-09-28 09:20:00,
2013-09-28 05:25:00,62.7,53.9,30.21,ENE,63,6.0,15.0,73,0.00,,---,0.00,VWS V14.00,2013-09-28 09:25:00,
2013-09-28 05:30:00,62.6,53.8,30.22,ENE,69,8.0,10.0,73,0.00,,---,0.00,VWS V14.00,2013-09-28 09:30:00,
2013-09-28 05:35:00,62.6,54.2,30.22,ENE,74,10.0,13.0,74,0.00,,---,0.00,VWS V14.00,2013-09-28 09:35:00,
2013-09-28 05:40:00,62.6,54.2,30.22,NE,56,11.0,13.0,74,0.00,,---,0.00,VWS V14.00,2013-09-28 09:40:00,
2013-09-28 05:45:00,62.5,53.7,30.22,ENE,73,11.0,15.0,73,0.00,,---,0.00,VWS V14.00,2013-09-28 09:45:00,
2013-09-28 05:50:00,62.5,54.1,30.22,East,80,6.0,15.0,74,0.00,,---,0.00,VWS V14.00,2013-09-28 09:50:00,
2013-09-28 05:55:00,62.4,54.0,30.22,East,80,10.0,15.0,74,0.00,,---,0.00,VWS V14.00,2013-09-28 09:55:00,
2013-09-28 06:01:00,62.4,53.6,30.22,East,85,10.0,12.0,73,0.00,,---,0.00,VWS V14.00,2013-09-28 10:01:00,
2013-09-28 06:06:00,62.4,53.6,30.22,ENE,63,13.0,13.0,73,0.00,,---,0.00,VWS V14.00,2013-09-28 10:06:00,
2013-09-28 06:11:00,62.4,53.6,30.23,East,81,7.0,13.0,73,0.00,,---,0.00,VWS V14.00,2013-09-28 10:11:00,
2013-09-28 06:16:00,62.3,53.5,30.23,ENE,73,9.0,13.0,73,0.00,,---,0.00,VWS V14.00,2013-09-28 10:16:00,
2013-09-28 06:21:00,62.3,53.5,30.23,East,88,9.0,14.0,73,0.00,,---,0.00,VWS V14.00,2013-09-28 10:21:00,
2013-09-28 06:26:00,62.3,53.5,30.23,ENE,66,9.0,14.0,73,0.00,,---,0.00,VWS V14.00,2013-09-28 10:26:00,
2013-09-28 06:31:00,62.3,53.5,30.23,ENE,75,9.0,12.0,73,0.00,,---,0.00,VWS V14.00,2013-09-28 10:31:00,
2013-09-28 06:36:00,62.3,53.5,30.23,ENE,76,8.0,14.0,73,0.00,,---,0.00,VWS V14.00,2013-09-28 10:36:00,
2013-09-28 06:41:00,62.3,53.9,30.23,ENE,67,9.0,14.0,74,0.00,,---,0.00,VWS V14.00,2013-09-28 10:41:00,
2013-09-28 06:46:00,62.3,54.3,30.24,East,80,8.0,14.0,75,0.00,,---,0.00,VWS V14.00,2013-09-28 10:46:00,
2013-09-28 06:51:00,62.3,54.7,30.24,East,92,9.0,15.0,76,0.00,,---,0.00,VWS V14.00,2013-09-28 10:51:00,
2013-09-28 06:56:00,62.4,55.1,30.24,East,101,7.0,15.0,77,0.00,,---,0.00,VWS V14.00,2013-09-28 10:56:00,
2013-09-28 07:02:00,62.4,55.1,30.24,East,81,7.0,11.0,77,0.00,,---,0.00,VWS V14.00,2013-09-28 11:02:00,
2013-09-28 07:07:00,62.6,55.3,30.24,East,85,5.0,16.0,77,0.00,,---,0.00,VWS V14.00,2013-09-28 11:07:00,
2013-09-28 07:12:00,62.7,55.4,30.24,East,91,7.0,16.0,77,0.00,,---,0.00,VWS V14.00,2013-09-28 11:12:00,
2013-09-28 07:17:00,62.9,55.9,30.24,ENE,75,8.0,16.0,78,0.00,,---,0.00,VWS V14.00,2013-09-28 11:17:00,
2013-09-28 07:22:00,62.9,55.2,30.24,ENE,60,11.0,16.0,76,0.00,,---,0.00,VWS V14.00,2013-09-28 11:22:00,
2013-09-28 07:27:00,62.9,55.2,30.25,ENE,61,13.0,16.0,76,0.00,,---,0.00,VWS V14.00,2013-09-28 11:27:00,
2013-09-28 07:32:00,63.0,55.0,30.25,East,86,11.0,15.0,75,0.00,,---,0.00,VWS V14.00,2013-09-28 11:32:00,
2013-09-28 07:37:00,62.9,54.9,30.25,ENE,63,10.0,15.0,75,0.00,,---,0.00,VWS V14.00,2013-09-28 11:37:00,
2013-09-28 07:42:00,62.9,54.5,30.25,East,89,9.0,16.0,74,0.00,,---,0.00,VWS V14.00,2013-09-28 11:42:00,
2013-09-28 07:47:00,63.2,54.8,30.26,East,83,9.0,16.0,74,0.00,,---,0.00,VWS V14.00,2013-09-28 11:47:00,
2013-09-28 07:52:00,63.3,54.5,30.25,ENE,73,8.0,16.0,73,0.00,,---,0.00,VWS V14.00,2013-09-28 11:52:00,
2013-09-28 07:57:00,63.4,55.0,30.26,East,79,11.0,16.0,74,0.00,,---,0.00,VWS V14.00,2013-09-28 11:57:00,
2013-09-28 08:02:00,63.8,55.4,30.25,East,79,7.0,12.0,74,0.00,,---,0.00,VWS V14.00,2013-09-28 12:02:00,
2013-09-28 08:07:00,63.7,55.3,30.25,NE,52,10.0,15.0,74,0.00,,---,0.00,VWS V14.00,2013-09-28 12:07:00,
2013-09-28 08:12:00,63.8,55.4,30.26,ENE,63,11.0,15.0,74,0.00,,---,0.00,VWS V14.00,2013-09-28 12:12:00,
2013-09-28 08:18:00,63.8,55.0,30.26,ENE,77,7.0,15.0,73,0.00,,---,0.00,VWS V14.00,2013-09-28 12:18:00,
2013-09-28 08:23:00,63.8,55.0,30.26,ENE,62,8.0,16.0,73,0.00,,---,0.00,VWS V14.00,2013-09-28 12:23:00,
2013-09-28 08:28:00,63.6,54.8,30.26,ENE,70,6.0,16.0,73,0.00,,---,0.00,VWS V14.00,2013-09-28 12:28:00,
2013-09-28 08:33:00,63.2,54.8,30.26,ENE,71,9.0,12.0,74,0.00,,---,0.00,VWS V14.00,2013-09-28 12:33:00,
2013-09-28 08:38:00,63.0,55.3,30.26,NE,52,10.0,13.0,76,0.00,,---,0.00,VWS V14.00,2013-09-28 12:38:00,
2013-09-28 08:43:00,62.9,55.2,30.26,ENE,73,5.0,13.0,76,0.00,,---,0.00,VWS V14.00,2013-09-28 12:43:00,
2013-09-28 08:48:00,62.9,55.2,30.26,ENE,71,4.0,15.0,76,0.00,,---,0.00,VWS V14.00,2013-09-28 12:48:00,
2013-09-28 08:53:00,62.9,54.5,30.26,ENE,69,9.0,15.0,74,0.00,,---,0.00,VWS V14.00,2013-09-28 12:53:00,
2013-09-28 08:58:00,62.9,54.9,30.26,ENE,64,10.0,15.0,75,0.00,,---,0.00,VWS V14.00,2013-09-28 12:58:00,
2013-09-28 09:03:00,62.7,54.7,30.26,East,83,9.0,15.0,75,0.00,,---,0.00,VWS V14.00,2013-09-28 13:03:00,
2013-09-28 09:08:00,62.7,54.7,30.26,NE,44,10.0,15.0,75,0.00,,---,0.00,VWS V14.00,2013-09-28 13:08:00,
2013-09-28 09:13:00,62.9,55.6,30.27,ENE,76,7.0,15.0,77,0.00,,---,0.00,VWS V14.00,2013-09-28 13:13:00,
2013-09-28 09:18:00,63.3,54.9,30.27,ENE,59,15.0,16.0,74,0.00,,---,0.00,VWS V14.00,2013-09-28 13:18:00,
2013-09-28 09:23:00,63.4,54.6,30.27,ENE,69,11.0,16.0,73,0.00,,---,0.00,VWS V14.00,2013-09-28 13:23:00,
2013-09-28 09:28:00,63.5,54.3,30.26,ENE,59,9.0,18.0,72,0.00,,---,0.00,VWS V14.00,2013-09-28 13:28:00,
2013-09-28 09:33:00,63.5,54.7,30.26,ENE,62,12.0,17.0,73,0.00,,---,0.00,VWS V14.00,2013-09-28 13:33:00,
2013-09-28 09:39:00,63.7,54.5,30.27,East,80,11.0,17.0,72,0.00,,---,0.00,VWS V14.00,2013-09-28 13:39:00,
2013-09-28 09:44:00,63.8,54.6,30.27,ENE,62,6.0,17.0,72,0.00,,---,0.00,VWS V14.00,2013-09-28 13:44:00,
2013-09-28 09:49:00,63.9,55.5,30.27,ENE,60,11.0,17.0,74,0.00,,---,0.00,VWS V14.00,2013-09-28 13:49:00,
2013-09-28 09:54:00,63.8,55.4,30.27,ENE,69,9.0,17.0,74,0.00,,---,0.00,VWS V14.00,2013-09-28 13:54:00,
2013-09-28 09:59:00,63.8,55.0,30.27,ENE,65,13.0,17.0,73,0.00,,---,0.00,VWS V14.00,2013-09-28 13:59:00,
2013-09-28 10:04:00,63.6,55.2,30.27,NE,37,8.0,16.0,74,0.00,,---,0.00,VWS V14.00,2013-09-28 14:04:00,
2013-09-28 10:09:00,63.5,54.7,30.28,ENE,57,9.0,16.0,73,0.00,,---,0.00,VWS V14.00,2013-09-28 14:09:00,
2013-09-28 10:14:00,63.4,54.6,30.28,ENE,75,13.0,16.0,73,0.00,,---,0.00,VWS V14.00,2013-09-28 14:14:00,
2013-09-28 10:19:00,63.5,53.9,30.28,ENE,67,9.0,16.0,71,0.00,,---,0.00,VWS V14.00,2013-09-28 14:19:00,
2013-09-28 10:24:00,63.4,54.6,30.28,NE,50,7.0,16.0,73,0.00,,---,0.00,VWS V14.00,2013-09-28 14:24:00,
2013-09-28 10:29:00,63.4,53.8,30.28,ENE,73,8.0,16.0,71,0.00,,---,0.00,VWS V14.00,2013-09-28 14:29:00,
2013-09-28 10:34:00,63.8,54.2,30.28,ENE,72,11.0,15.0,71,0.00,,---,0.00,VWS V14.00,2013-09-28 14:34:00,
2013-09-28 10:40:00,63.9,54.3,30.28,East,80,10.0,17.0,71,0.00,,---,0.00,VWS V14.00,2013-09-28 14:40:00,
2013-09-28 10:45:00,63.9,54.7,30.28,East,85,13.0,17.0,72,0.00,,---,0.00,VWS V14.00,2013-09-28 14:45:00,
2013-09-28 10:50:00,63.9,55.1,30.28,ENE,67,9.0,17.0,73,0.00,,---,0.00,VWS V14.00,2013-09-28 14:50:00,
2013-09-28 10:55:00,64.2,55.0,30.29,ENE,66,9.0,17.0,72,0.00,,---,0.00,VWS V14.00,2013-09-28 14:55:00,
2013-09-28 11:00:00,63.8,55.7,30.29,NE,46,9.0,12.0,75,0.00,,---,0.00,VWS V14.00,2013-09-28 15:00:00,
2013-09-28 11:05:00,63.6,55.5,30.29,ENE,61,11.0,16.0,75,0.00,,---,0.00,VWS V14.00,2013-09-28 15:05:00,
2013-09-28 11:10:00,63.5,55.4,30.29,NE,56,10.0,16.0,75,0.00,,---,0.00,VWS V14.00,2013-09-28 15:10:00,
2013-09-28 11:15:00,63.5,55.4,30.29,ENE,66,9.0,17.0,75,0.00,,---,0.00,VWS V14.00,2013-09-28 15:15:00,
2013-09-28 11:20:00,63.7,55.6,30.29,NE,51,8.0,17.0,75,0.00,,---,0.00,VWS V14.00,2013-09-28 15:20:00,
2013-09-28 11:25:00,64.0,55.2,30.29,NE,48,12.0,18.0,73,0.00,,---,0.00,VWS V14.00,2013-09-28 15:25:00,
2013-09-28 11:31:00,63.8,55.7,30.29,ENE,65,12.0,16.0,75,0.00,,---,0.00,VWS V14.00,2013-09-28 15:31:00,
2013-09-28 11:36:00,63.9,55.1,30.29,NE,55,13.0,16.0,73,0.00,,---,0.00,VWS V14.00,2013-09-28 15:36:00,
2013-09-28 11:41:00,63.9,55.1,30.29,ENE,77,10.0,17.0,73,0.00,,---,0.00,VWS V14.00,2013-09-28 15:41:00,
2013-09-28 11:46:00,64.1,54.5,30.28,ENE,75,6.0,19.0,71,0.00,,---,0.00,VWS V14.00,2013-09-28 15:46:00,
2013-09-28 11:51:00,64.3,55.1,30.28,ENE,77,12.0,19.0,72,0.00,,---,0.00,VWS V14.00,2013-09-28 15:51:00,
2013-09-28 11:56:00,64.3,55.5,30.28,East,91,9.0,19.0,73,0.00,,---,0.00,VWS V14.00,2013-09-28 15:56:00,
2013-09-28 12:01:00,64.3,55.5,30.28,ENE,77,11.0,15.0,73,0.00,,---,0.00,VWS V14.00,2013-09-28 16:01:00,
2013-09-28 12:06:00,64.2,55.4,30.28,ENE,62,9.0,17.0,73,0.00,,---,0.00,VWS V14.00,2013-09-28 16:06:00,
2013-09-28 12:11:00,64.3,55.5,30.28,East,80,10.0,17.0,73,0.00,,---,0.00,VWS V14.00,2013-09-28 16:11:00,
2013-09-28 12:16:00,64.3,55.5,30.27,ENE,66,12.0,17.0,73,0.00,,---,0.00,VWS V14.00,2013-09-28 16:16:00,
2013-09-28 12:21:00,64.3,54.7,30.28,ENE,67,14.0,17.0,71,0.00,,---,0.00,VWS V14.00,2013-09-28 16:21:00,
2013-09-28 12:26:00,64.5,55.3,30.28,East,83,10.0,17.0,72,0.00,,---,0.00,VWS V14.00,2013-09-28 16:26:00,
2013-09-28 12:31:00,64.4,55.2,30.27,ENE,68,11.0,13.0,72,0.00,,---,0.00,VWS V14.00,2013-09-28 16:31:00,
2013-09-28 12:36:00,64.4,54.0,30.27,ENE,62,10.0,16.0,69,0.00,,---,0.00,VWS V14.00,2013-09-28 16:36:00,
2013-09-28 12:42:00,64.3,54.7,30.26,ENE,58,11.0,16.0,71,0.00,,---,0.00,VWS V14.00,2013-09-28 16:42:00,
2013-09-28 12:47:00,64.3,55.1,30.26,ENE,57,14.0,16.0,72,0.00,,---,0.00,VWS V14.00,2013-09-28 16:47:00,
2013-09-28 12:52:00,64.6,54.2,30.26,NE,56,11.0,16.0,69,0.00,,---,0.00,VWS V14.00,2013-09-28 16:52:00,
2013-09-28 12:57:00,64.6,54.6,30.26,NE,46,11.0,17.0,70,0.00,,---,0.00,VWS V14.00,2013-09-28 16:57:00,
2013-09-28 13:02:00,64.7,54.7,30.26,ENE,72,10.0,13.0,70,0.00,,---,0.00,VWS V14.00,2013-09-28 17:02:00,
2013-09-28 13:07:00,64.7,54.7,30.26,East,79,12.0,16.0,70,0.00,,---,0.00,VWS V14.00,2013-09-28 17:07:00,
2013-09-28 13:12:00,64.5,54.5,30.25,ENE,58,11.0,16.0,70,0.00,,---,0.00,VWS V14.00,2013-09-28 17:12:00,
2013-09-28 13:17:00,64.4,54.0,30.25,ENE,69,11.0,17.0,69,0.00,,---,0.00,VWS V14.00,2013-09-28 17:17:00,
2013-09-28 13:22:00,64.9,53.7,30.25,East,91,10.0,17.0,67,0.00,,---,0.00,VWS V14.00,2013-09-28 17:22:00,
2013-09-28 13:27:00,65.1,53.1,30.25,ENE,65,12.0,17.0,65,0.00,,---,0.00,VWS V14.00,2013-09-28 17:27:00,
2013-09-28 13:32:00,65.0,53.8,30.25,ENE,66,12.0,14.0,67,0.00,,---,0.00,VWS V14.00,2013-09-28 17:32:00,
2013-09-28 13:37:00,65.0,54.2,30.25,NE,55,10.0,17.0,68,0.00,,---,0.00,VWS V14.00,2013-09-28 17:37:00,
2013-09-28 13:43:00,64.9,54.9,30.25,East,93,9.0,17.0,70,0.00,,---,0.00,VWS V14.00,2013-09-28 17:43:00,
2013-09-28 13:48:00,65.1,54.7,30.25,ENE,65,16.0,18.0,69,0.00,,---,0.00,VWS V14.00,2013-09-28 17:48:00,
2013-09-28 13:53:00,65.0,54.6,30.25,East,79,13.0,18.0,69,0.00,,---,0.00,VWS V14.00,2013-09-28 17:53:00,
2013-09-28 13:58:00,65.0,55.0,30.25,ENE,73,11.0,18.0,70,0.00,,---,0.00,VWS V14.00,2013-09-28 17:58:00,
2013-09-28 14:04:00,65.3,54.9,30.25,East,93,7.0,15.0,69,0.00,,---,0.00,VWS V14.00,2013-09-28 18:04:00,
2013-09-28 14:09:00,65.2,55.2,30.25,ENE,71,9.0,15.0,70,0.00,,---,0.00,VWS V14.00,2013-09-28 18:09:00,
2013-09-28 14:14:00,65.2,55.2,30.25,ENE,61,9.0,17.0,70,0.00,,---,0.00,VWS V14.00,2013-09-28 18:14:00,
2013-09-28 14:19:00,65.1,55.9,30.25,ENE,71,16.0,17.0,72,0.00,,---,0.00,VWS V14.00,2013-09-28 18:19:00,
2013-09-28 14:24:00,65.2,55.2,30.25,East,80,13.0,17.0,70,0.00,,---,0.00,VWS V14.00,2013-09-28 18:24:00,
2013-09-28 14:29:00,65.5,55.5,30.25,ESE,102,11.0,17.0,70,0.00,,---,0.00,VWS V14.00,2013-09-28 18:29:00,
2013-09-28 14:34:00,65.6,55.6,30.24,NE,43,12.0,16.0,70,0.00,,---,0.00,VWS V14.00,2013-09-28 18:34:00,
2013-09-28 14:39:00,65.4,55.4,30.24,NE,55,12.0,18.0,70,0.00,,---,0.00,VWS V14.00,2013-09-28 18:39:00,
2013-09-28 14:44:00,65.3,55.7,30.25,NE,55,9.0,18.0,71,0.00,,---,0.00,VWS V14.00,2013-09-28 18:44:00,
2013-09-28 14:49:00,65.6,56.0,30.24,ENE,67,14.0,18.0,71,0.00,,---,0.00,VWS V14.00,2013-09-28 18:49:00,
2013-09-28 14:55:00,65.4,55.4,30.25,ENE,67,10.0,18.0,70,0.00,,---,0.00,VWS V14.00,2013-09-28 18:55:00,
2013-09-28 15:00:00,65.6,56.0,30.24,ENE,64,12.0,18.0,71,0.00,,---,0.00,VWS V14.00,2013-09-28 19:00:00,
2013-09-28 15:05:00,65.7,55.7,30.24,East,85,11.0,16.0,70,0.00,,---,0.00,VWS V14.00,2013-09-28 19:05:00,
2013-09-28 15:10:00,65.8,55.8,30.24,East,91,9.0,17.0,70,0.00,,---,0.00,VWS V14.00,2013-09-28 19:10:00,
2013-09-28 15:15:00,65.8,55.4,30.24,East,96,12.0,18.0,69,0.00,,---,0.00,VWS V14.00,2013-09-28 19:15:00,
2013-09-28 15:21:00,66.1,56.0,30.24,ENE,75,10.0,18.0,70,0.00,,---,0.00,VWS V14.00,2013-09-28 19:21:00,
2013-09-28 15:26:00,66.1,56.0,30.24,ENE,75,12.0,18.0,70,0.00,,---,0.00,VWS V14.00,2013-09-28 19:26:00,
2013-09-28 15:31:00,65.9,55.8,30.24,East,100,12.0,17.0,70,0.00,,---,0.00,VWS V14.00,2013-09-28 19:31:00,
2013-09-28 15:36:00,66.2,54.9,30.23,East,93,13.0,17.0,67,0.00,,---,0.00,VWS V14.00,2013-09-28 19:36:00,
2013-09-28 15:41:00,66.1,56.0,30.23,ENE,74,9.0,18.0,70,0.00,,---,0.00,VWS V14.00,2013-09-28 19:41:00,
2013-09-28 15:46:00,65.9,55.5,30.23,ENE,75,11.0,18.0,69,0.00,,---,0.00,VWS V14.00,2013-09-28 19:46:00,
2013-09-28 15:51:00,66.0,56.0,30.23,ENE,65,12.0,18.0,70,0.00,,---,0.00,VWS V14.00,2013-09-28 19:51:00,
2013-09-28 15:56:00,66.0,55.2,30.23,ENE,69,7.0,20.0,68,0.00,,---,0.00,VWS V14.00,2013-09-28 19:56:00,
2013-09-28 16:01:00,66.3,55.4,30.23,East,101,15.0,15.0,68,0.00,,---,0.00,VWS V14.00,2013-09-28 20:01:00,
2013-09-28 16:06:00,66.2,56.5,30.23,ENE,65,14.0,20.0,71,0.00,,---,0.00,VWS V14.00,2013-09-28 20:06:00,
2013-09-28 16:11:00,66.0,56.0,30.23,ENE,73,14.0,20.0,70,0.00,,---,0.00,VWS V14.00,2013-09-28 20:11:00,
2013-09-28 16:16:00,66.1,56.0,30.23,East,82,17.0,20.0,70,0.00,,---,0.00,VWS V14.00,2013-09-28 20:16:00,
2013-09-28 16:22:00,66.2,56.1,30.23,ENE,75,10.0,20.0,70,0.00,,---,0.00,VWS V14.00,2013-09-28 20:22:00,
2013-09-28 16:27:00,66.3,56.2,30.22,East,97,12.0,20.0,70,0.00,,---,0.00,VWS V14.00,2013-09-28 20:27:00,
2013-09-28 16:32:00,66.5,55.6,30.22,East,82,9.0,12.0,68,0.00,,---,0.00,VWS V14.00,2013-09-28 20:32:00,
2013-09-28 16:37:00,66.6,55.7,30.22,East,86,10.0,18.0,68,0.00,,---,0.00,VWS V14.00,2013-09-28 20:37:00,
2013-09-28 16:42:00,66.6,54.5,30.22,East,98,13.0,18.0,65,0.00,,---,0.00,VWS V14.00,2013-09-28 20:42:00,
2013-09-28 16:47:00,66.5,54.4,30.23,East,84,13.0,18.0,65,0.00,,---,0.00,VWS V14.00,2013-09-28 20:47:00,
2013-09-28 16:52:00,66.6,54.5,30.22,ENE,69,10.0,18.0,65,0.00,,---,0.00,VWS V14.00,2013-09-28 20:52:00,
2013-09-28 16:57:00,66.5,54.8,30.22,ENE,57,10.0,18.0,66,0.00,,---,0.00,VWS V14.00,2013-09-28 20:57:00,
2013-09-28 17:02:00,66.5,55.2,30.22,East,96,16.0,16.0,67,0.00,,---,0.00,VWS V14.00,2013-09-28 21:02:00,
2013-09-28 17:08:00,66.5,55.2,30.22,East,81,9.0,16.0,67,0.00,,---,0.00,VWS V14.00,2013-09-28 21:08:00,
2013-09-28 17:14:00,66.5,55.2,30.22,East,90,15.0,16.0,67,0.00,,---,0.00,VWS V14.00,2013-09-28 21:14:00,
2013-09-28 17:19:00,66.4,55.5,30.22,East,84,13.0,16.0,68,0.00,,---,0.00,VWS V14.00,2013-09-28 21:19:00,
2013-09-28 17:24:00,66.2,55.3,30.22,East,88,15.0,17.0,68,0.00,,---,0.00,VWS V14.00,2013-09-28 21:24:00,
2013-09-28 17:29:00,66.3,55.8,30.22,ENE,69,9.0,17.0,69,0.00,,---,0.00,VWS V14.00,2013-09-28 21:29:00,
2013-09-28 17:34:00,66.5,55.2,30.23,ENE,75,9.0,15.0,67,0.00,,---,0.00,VWS V14.00,2013-09-28 21:34:00,
2013-09-28 17:39:00,66.4,55.1,30.22,ENE,66,9.0,15.0,67,0.00,,---,0.00,VWS V14.00,2013-09-28 21:39:00,
2013-09-28 17:44:00,66.3,55.4,30.22,East,82,10.0,15.0,68,0.00,,---,0.00,VWS V14.00,2013-09-28 21:44:00,
2013-09-28 17:49:00,66.2,55.3,30.22,ENE,74,12.0,15.0,68,0.00,,---,0.00,VWS V14.00,2013-09-28 21:49:00,
2013-09-28 17:55:00,66.0,55.5,30.22,ENE,72,12.0,15.0,69,0.00,,---,0.00,VWS V14.00,2013-09-28 21:55:00,
2013-09-28 18:00:00,66.1,55.7,30.22,East,83,6.0,7.0,69,0.00,,---,0.00,VWS V14.00,2013-09-28 22:00:00,
2013-09-28 18:05:00,65.9,55.0,30.22,East,100,11.0,15.0,68,0.00,,---,0.00,VWS V14.00,2013-09-28 22:05:00,
2013-09-28 18:10:00,65.9,55.0,30.22,ENE,64,11.0,15.0,68,0.00,,---,0.00,VWS V14.00,2013-09-28 22:10:00,
2013-09-28 18:15:00,65.8,55.8,30.22,ENE,77,13.0,17.0,70,0.00,,---,0.00,VWS V14.00,2013-09-28 22:15:00,
2013-09-28 18:20:00,65.7,55.3,30.22,ENE,68,10.0,17.0,69,0.00,,---,0.00,VWS V14.00,2013-09-28 22:20:00,
2013-09-28 18:25:00,65.6,55.6,30.22,ESE,102,7.0,17.0,70,0.00,,---,0.00,VWS V14.00,2013-09-28 22:25:00,
2013-09-28 18:30:00,65.5,55.9,30.23,ENE,72,6.0,8.0,71,0.00,,---,0.00,VWS V14.00,2013-09-28 22:30:00,
2013-09-28 18:36:00,65.4,56.2,30.23,ENE,74,9.0,11.0,72,0.00,,---,0.00,VWS V14.00,2013-09-28 22:36:00,
2013-09-28 18:41:00,65.2,56.3,30.22,East,85,10.0,13.0,73,0.00,,---,0.00,VWS V14.00,2013-09-28 22:41:00,
2013-09-28 18:46:00,65.0,56.2,30.22,ENE,71,6.0,14.0,73,0.00,,---,0.00,VWS V14.00,2013-09-28 22:46:00,
2013-09-28 18:51:00,64.9,56.0,30.23,ENE,74,6.0,14.0,73,0.00,,---,0.00,VWS V14.00,2013-09-28 22:51:00,
2013-09-28 18:56:00,64.9,56.4,30.23,ENE,69,6.0,14.0,74,0.00,,---,0.00,VWS V14.00,2013-09-28 22:56:00,
2013-09-28 19:01:00,64.9,56.0,30.22,East,81,7.0,11.0,73,0.00,,---,0.00,VWS V14.00,2013-09-28 23:01:00,
2013-09-28 19:06:00,64.9,56.0,30.22,ENE,77,5.0,12.0,73,0.00,,---,0.00,VWS V14.00,2013-09-28 23:06:00,
2013-09-28 19:11:00,64.9,56.0,30.22,ENE,71,6.0,12.0,73,0.00,,---,0.00,VWS V14.00,2013-09-28 23:11:00,
2013-09-28 19:17:00,64.8,56.0,30.22,East,80,6.0,12.0,73,0.00,,---,0.00,VWS V14.00,2013-09-28 23:17:00,
2013-09-28 19:22:00,64.9,56.0,30.22,ENE,72,10.0,13.0,73,0.00,,---,0.00,VWS V14.00,2013-09-28 23:22:00,
2013-09-28 19:27:00,64.9,56.0,30.22,East,93,7.0,13.0,73,0.00,,---,0.00,VWS V14.00,2013-09-28 23:27:00,
2013-09-28 19:32:00,64.8,56.0,30.22,ENE,77,5.0,10.0,73,0.00,,---,0.00,VWS V14.00,2013-09-28 23:32:00,
2013-09-28 19:37:00,64.9,56.0,30.22,ESE,103,5.0,12.0,73,0.00,,---,0.00,VWS V14.00,2013-09-28 23:37:00,
2013-09-28 19:42:00,64.9,56.0,30.22,East,83,7.0,12.0,73,0.00,,---,0.00,VWS V14.00,2013-09-28 23:42:00,
2013-09-28 19:47:00,64.8,56.3,30.22,ENE,74,5.0,14.0,74,0.00,,---,0.00,VWS V14.00,2013-09-28 23:47:00,
2013-09-28 19:52:00,64.8,56.3,30.22,ESE,107,5.0,14.0,74,0.00,,---,0.00,VWS V14.00,2013-09-28 23:52:00,
2013-09-28 19:58:00,64.8,56.3,30.22,East,93,6.0,14.0,74,0.00,,---,0.00,VWS V14.00,2013-09-28 23:58:00,
2013-09-28 20:03:00,64.8,56.3,30.22,East,89,4.0,11.0,74,0.00,,---,0.00,VWS V14.00,2013-09-29 00:03:00,
2013-09-28 20:08:00,64.8,56.3,30.22,ESE,104,6.0,13.0,74,0.00,,---,0.00,VWS V14.00,2013-09-29 00:08:00,
2013-09-28 20:13:00,64.8,56.3,30.22,East,84,6.0,13.0,74,0.00,,---,0.00,VWS V14.00,2013-09-29 00:13:00,
2013-09-28 20:18:00,64.7,56.2,30.22,ENE,72,10.0,14.0,74,0.00,,---,0.00,VWS V14.00,2013-09-29 00:18:00,
2013-09-28 20:23:00,64.8,56.3,30.22,East,101,6.0,14.0,74,0.00,,---,0.00,VWS V14.00,2013-09-29 00:23:00,
2013-09-28 20:28:00,64.7,56.6,30.22,East,83,4.0,14.0,75,0.00,,---,0.00,VWS V14.00,2013-09-29 00:28:00,
2013-09-28 20:33:00,64.7,56.6,30.22,East,91,3.0,14.0,75,0.00,,---,0.00,VWS V14.00,2013-09-29 00:33:00,
2013-09-28 20:38:00,64.7,56.6,30.22,East,89,9.0,14.0,75,0.00,,---,0.00,VWS V14.00,2013-09-29 00:38:00,
2013-09-28 20:43:00,64.6,56.5,30.22,East,87,10.0,14.0,75,0.00,,---,0.00,VWS V14.00,2013-09-29 00:43:00,
2013-09-28 20:48:00,64.6,56.5,30.22,ENE,77,6.0,15.0,75,0.00,,---,0.00,VWS V14.00,2013-09-29 00:48:00,
2013-09-28 20:54:00,64.6,56.9,30.21,East,89,5.0,15.0,76,0.00,,---,0.00,VWS V14.00,2013-09-29 00:54:00,
2013-09-28 20:59:00,64.5,56.8,30.22,East,96,3.0,15.0,76,0.00,,---,0.00,VWS V14.00,2013-09-29 00:59:00,
2013-09-28 21:04:00,64.5,56.8,30.22,East,92,7.0,11.0,76,0.00,,---,0.00,VWS V14.00,2013-09-29 01:04:00,
2013-09-28 21:09:00,64.5,57.1,30.22,East,85,5.0,11.0,77,0.00,,---,0.00,VWS V14.00,2013-09-29 01:09:00,
2013-09-28 21:14:00,64.4,56.7,30.22,East,87,9.0,11.0,76,0.00,,---,0.00,VWS V14.00,2013-09-29 01:14:00,
2013-09-28 21:19:00,64.5,56.4,30.22,East,91,8.0,12.0,75,0.00,,---,0.00,VWS V14.00,2013-09-29 01:19:00,
2013-09-28 21:25:00,64.5,56.8,30.22,ESE,118,8.0,12.0,76,0.00,,---,0.00,VWS V14.00,2013-09-29 01:25:00,
2013-09-28 21:30:00,64.5,56.8,30.22,ESE,114,7.0,12.0,76,0.00,,---,0.00,VWS V14.00,2013-09-29 01:30:00,
2013-09-28 21:35:00,64.5,56.8,30.22,East,91,4.0,11.0,76,0.00,,---,0.00,VWS V14.00,2013-09-29 01:35:00,
2013-09-28 21:40:00,64.5,57.1,30.22,East,98,7.0,11.0,77,0.00,,---,0.00,VWS V14.00,2013-09-29 01:40:00,
2013-09-28 21:46:00,64.4,57.0,30.22,East,83,7.0,11.0,77,0.00,,---,0.00,VWS V14.00,2013-09-29 01:46:00,
2013-09-28 21:51:00,64.4,57.0,30.22,East,92,4.0,11.0,77,0.00,,---,0.00,VWS V14.00,2013-09-29 01:51:00,
2013-09-28 21:56:00,64.4,57.0,30.22,East,91,6.0,11.0,77,0.00,,---,0.00,VWS V14.00,2013-09-29 01:56:00,
2013-09-28 22:01:00,64.4,56.7,30.21,ENE,75,4.0,7.0,76,0.00,,---,0.00,VWS V14.00,2013-09-29 02:01:00,
2013-09-28 22:06:00,64.3,57.0,30.22,East,96,5.0,7.0,77,0.00,,---,0.00,VWS V14.00,2013-09-29 02:06:00,
2013-09-28 22:11:00,64.4,57.4,30.21,ESE,104,4.0,9.0,78,0.00,,---,0.00,VWS V14.00,2013-09-29 02:11:00,
2013-09-28 22:17:00,64.4,57.0,30.21,ESE,102,4.0,9.0,77,0.00,,---,0.00,VWS V14.00,2013-09-29 02:17:00,
2013-09-28 22:22:00,64.5,57.1,30.21,ESE,106,4.0,9.0,77,0.00,,---,0.00,VWS V14.00,2013-09-29 02:22:00,
2013-09-28 22:27:00,64.6,57.2,30.21,East,97,8.0,9.0,77,0.00,,---,0.00,VWS V14.00,2013-09-29 02:27:00,
2013-09-28 22:33:00,64.7,57.0,30.21,East,96,9.0,10.0,76,0.00,,---,0.00,VWS V14.00,2013-09-29 02:33:00,
2013-09-28 22:38:00,64.8,57.4,30.21,ESE,106,6.0,10.0,77,0.00,,---,0.00,VWS V14.00,2013-09-29 02:38:00,
2013-09-28 22:43:00,64.8,57.1,30.21,East,98,4.0,12.0,76,0.00,,---,0.00,VWS V14.00,2013-09-29 02:43:00,
2013-09-28 22:48:00,64.9,57.2,30.21,East,89,7.0,12.0,76,0.00,,---,0.00,VWS V14.00,2013-09-29 02:48:00,
2013-09-28 22:53:00,64.9,57.5,30.21,East,93,9.0,12.0,77,0.00,,---,0.00,VWS V14.00,2013-09-29 02:53:00,
2013-09-28 22:58:00,64.9,57.5,30.20,East,94,7.0,12.0,77,0.00,,---,0.00,VWS V14.00,2013-09-29 02:58:00,
2013-09-28 23:03:00,64.9,57.5,30.20,East,90,7.0,10.0,77,0.00,,---,0.00,VWS V14.00,2013-09-29 03:03:00,
2013-09-28 23:08:00,64.8,57.4,30.20,ESE,107,6.0,11.0,77,0.00,,---,0.00,VWS V14.00,2013-09-29 03:08:00,
2013-09-28 23:13:00,64.8,57.4,30.20,ESE,123,7.0,11.0,77,0.00,,---,0.00,VWS V14.00,2013-09-29 03:13:00,
2013-09-28 23:19:00,64.7,57.3,30.20,East,100,5.0,11.0,77,0.00,,---,0.00,VWS V14.00,2013-09-29 03:19:00,
2013-09-28 23:24:00,64.7,57.3,30.20,ESE,107,6.0,11.0,77,0.00,,---,0.00,VWS V14.00,2013-09-29 03:24:00,
2013-09-28 23:29:00,64.7,57.0,30.20,East,92,6.0,12.0,76,0.00,,---,0.00,VWS V14.00,2013-09-29 03:29:00,
2013-09-28 23:34:00,64.8,56.7,30.20,East,87,4.0,13.0,75,0.00,,---,0.00,VWS V14.00,2013-09-29 03:34:00,
2013-09-28 23:39:00,64.8,56.3,30.19,East,86,6.0,13.0,74,0.00,,---,0.00,VWS V14.00,2013-09-29 03:39:00,
2013-09-28 23:45:00,64.9,56.4,30.19,ESE,108,10.0,13.0,74,0.00,,---,0.00,VWS V14.00,2013-09-29 03:45:00,
2013-09-28 23:51:00,64.8,57.4,30.19,ESE,122,7.0,13.0,77,0.00,,---,0.00,VWS V14.00,2013-09-29 03:51:00,
2013-09-28 23:56:00,64.8,57.1,30.19,ENE,63,8.0,14.0,76,0.00,,---,0.00,VWS V14.00,2013-09-29 03:56:00,